User: anonymous   Login
Location: Mentone
(34.5413°N, 85.5351°W)
Time: 01:10:07
(UTC-05:00)
Language:

Uosat F - Orbit

View from above orbital plane
View from above orbital plane
View from above satellite
View from above satellite

Ground track
Ground track

The orbit data is extracted from the following two-line orbital elements,

1 21575U 91050B   14303.45823407  .00000446  00000-0  15462-3 0  1570
2 21575 098.7156 282.0021 0006167 279.3622 196.0324 14.40461922222952
Epoch (UTC): 30 October 2014 10:59:51
Eccentricity: 0.0006167
inclination: 98.7156°
perigee height: 752 km
apogee height: 761 km
right ascension of ascending node: 282.0021°
argument of perigee: 279.3622°
revolutions per day: 14.40461922
mean anomaly at epoch: 196.0324°
orbit number at epoch: 22295

The dashed part of the orbit path shows where the satellite is in the earth's shadow,  

DLR